Weather History for Dryden, TX

Change the Weather History Date:

Monday, April 8, 2013

  Actual Average (KFST) Record (KFST)
Temperature  
Mean Temperature 78 °F -  
Max Temperature 91 °F 76 °F 93 °F (2011)
Min Temperature 64 °F 49 °F 30 °F (2007)
Cooling Degree Days 12    
Growing Degree Days 28 (Base 50)    
Moisture  
Dew Point 55 °F    
Average Humidity 54    
Maximum Humidity 84    
Minimum Humidity 19    
Precipitation  
Precipitation 0.00 in - - ()
Sea Level Pressure  
Sea Level Pressure 29.56 in    
Wind  
Wind Speed 8 mph (ESE)    
Max Wind Speed 20 mph    
Max Gust Speed 30 mph    
Averages and records for this station are not official NWS values.
T = Trace of Precipitation, MM = Missing Value Source: NWS Daily Summary

Daily Weather History Graph

Daily Weather History Graph

Search for Another Location

Airport:

Trip Planner

Search our weather history database for the weather conditions in past years. The results will help you decide how hot, cold, wet, or windy it might be!

Date:

Astronomy

Apr. 08, 2013 Rise Set
Actual Time 7:29 AM CDT 8:12 PM CDT
Civil Twilight 7:05 AM CDT 8:36 PM CDT
Nautical Twilight 6:36 AM CDT 9:04 PM CDT
Astronomical Twilight 6:07 AM CDT 9:34 PM CDT
Moon 6:14 AM CDT (4/8) 6:52 PM CDT (4/8)
Length of Visible Light 13h 31m
Length of Day
12h 42m
Waning Crescent, 3% of the Moon is Illuminated
Apr 8
Waning Crescent
Apr 10
New
Apr 18
First Quarter
Apr 25
Full
May 2
Last Quarter

Hourly Weather History & Observations

Time (CDT) Temp. Heat Index Dew Point Humidity Pressure Visibility Wind Dir Wind Speed Gust Speed Precip Events Conditions
12:53 AM 69.1 °F - 53.1 °F 57% 29.62 in - NE 5.8 mph - N/A   Unknown
1:53 AM 69.1 °F - 55.0 °F 61% 29.62 in - NE 5.8 mph - N/A   Unknown
2:53 AM 68.0 °F - 55.9 °F 65% 29.60 in - East 4.6 mph - N/A   Unknown
3:53 AM 69.1 °F - 57.9 °F 68% 29.59 in - ESE 9.2 mph - N/A   Unknown
4:53 AM 64.9 °F - 59.0 °F 81% 29.59 in - East 6.9 mph - N/A   Unknown
5:53 AM 66.0 °F - 60.1 °F 81% 29.60 in - ESE 6.9 mph - N/A   Unknown
6:53 AM 64.9 °F - 60.1 °F 84% 29.62 in - ESE 4.6 mph - N/A   Unknown
7:53 AM 64.9 °F - 60.1 °F 84% 29.64 in - East 6.9 mph - N/A   Unknown
8:53 AM 64.9 °F - 60.1 °F 84% 29.66 in - ESE 4.6 mph - N/A   Unknown
9:53 AM 66.9 °F - 60.1 °F 79% 29.67 in - SSE 3.5 mph - N/A   Unknown
10:53 AM 70.0 °F - 59.0 °F 68% 29.68 in - SSE 3.5 mph - N/A   Unknown
11:53 AM 73.9 °F - 59.0 °F 59% 29.67 in - East 4.6 mph - N/A   Unknown
12:53 PM 78.1 °F - 57.9 °F 50% 29.65 in - Variable 6.9 mph - N/A   Unknown
1:53 PM 82.9 °F 81.8 °F 53.1 °F 36% 29.59 in - South 5.8 mph - N/A   Unknown
2:53 PM 87.1 °F - 46.0 °F 24% 29.54 in - Calm Calm - N/A   Unknown
3:53 PM 90.0 °F - 46.0 °F 22% 29.49 in - South 10.4 mph - N/A   Unknown
4:53 PM 91.0 °F - 43.0 °F 19% 29.46 in - SE 11.5 mph 17.3 mph N/A   Unknown
5:53 PM 90.0 °F - 46.9 °F 23% 29.44 in - ESE 18.4 mph 24.2 mph N/A   Unknown
6:53 PM 88.0 °F - 52.0 °F 29% 29.43 in - SE 17.3 mph 24.2 mph N/A   Unknown
7:53 PM 84.9 °F 83.3 °F 54.0 °F 34% 29.44 in - SE 17.3 mph 24.2 mph N/A   Unknown
8:53 PM 82.0 °F 81.3 °F 54.0 °F 38% 29.44 in - SE 15.0 mph - N/A   Unknown
9:53 PM 81.0 °F 80.7 °F 55.0 °F 41% 29.46 in - ESE 15.0 mph 24.2 mph N/A   Unknown
10:53 PM 80.1 °F 80.9 °F 60.1 °F 50% 29.47 in - SE 19.6 mph 29.9 mph N/A   Unknown
11:53 PM 75.9 °F - 62.1 °F 62% 29.49 in - ESE 17.3 mph 26.5 mph N/A   Unknown